• In Hungary
  • List of Countries
  • For 7 days
  • Water Temperature
  • Satellite Maps
  • Weather Map
  • News
  • Weather Widgets
  • user-avatar
    Login

    Hourly Weather Gweru

    Today, 20 September, Thursday

    Time Temperature Precipitation Wind Pressure Humidity
    00:00 +23°C° 0 mm 2 mps 645 mmHg 15%
    01:00 +21°C° 0 mm 2 mps 645 mmHg 17%
    02:00 +20°C° 0 mm 2 mps 645 mmHg 19%
    03:00 +20°C° 0 mm 2 mps 645 mmHg 21%
    04:00 +19°C° 0 mm 2 mps 645 mmHg 22%
    05:00 +18°C° 0 mm 2 mps 645 mmHg 24%
    06:00 +21°C° 0 mm 2 mps 646 mmHg 22%
    07:00 +24°C° 0 mm 3 mps 646 mmHg 19%
    08:00 +26°C° 0 mm 3 mps 647 mmHg 16%
    09:00 +28°C° 0 mm 3 mps 648 mmHg 14%
    10:00 +31°C° 0 mm 3 mps 649 mmHg 12%
    11:00 +34°C° 0 mm 4 mps 649 mmHg 9%
    12:00 +34°C° 0 mm 5 mps 649 mmHg 10%
    13:00 +34°C° 0 mm 5 mps 648 mmHg 11%
    14:00 +35°C° 0 mm 6 mps 647 mmHg 12%
    15:00 +33°C° 0 mm 7 mps 647 mmHg 16%
    16:00 +32°C° 0 mm 7 mps 646 mmHg 20%
    17:00 +30°C° 0 mm 7 mps 646 mmHg 24%
    18:00 +28°C° 0 mm 7 mps 646 mmHg 32%
    19:00 +26°C° 0 mm 7 mps 646 mmHg 41%
    20:00 +23°C° 0 mm 7 mps 647 mmHg 50%
    21:00 +22°C° 0 mm 7 mps 647 mmHg 57%
    22:00 +21°C° 0 mm 7 mps 647 mmHg 64%
    23:00 +20°C° 0 mm 7 mps 647 mmHg 71%

    Tomorrow, 21 September, Friday

    Time Temperature Precipitation Wind Pressure Humidity
    00:00 +19°C° 0 mm 6 mps 647 mmHg 72%
    01:00 +19°C° 0 mm 6 mps 647 mmHg 74%
    02:00 +17°C° 0 mm 5 mps 646 mmHg 76%
    03:00 +17°C° 0 mm 5 mps 646 mmHg 78%
    04:00 +17°C° 0 mm 4 mps 646 mmHg 80%
    05:00 +17°C° 0 mm 4 mps 646 mmHg 82%
    06:00 +18°C° 0 mm 4 mps 647 mmHg 75%
    07:00 +19°C° 0 mm 4 mps 647 mmHg 69%
    08:00 +20°C° 0 mm 4 mps 648 mmHg 62%
    09:00 +23°C° 0 mm 4 mps 648 mmHg 51%
    10:00 +27°C° 0 mm 4 mps 649 mmHg 39%
    11:00 +30°C° 0 mm 4 mps 649 mmHg 27%
    12:00 +32°C° 0 mm 4 mps 649 mmHg 24%
    13:00 +33°C° 0 mm 3 mps 648 mmHg 20%
    14:00 +34°C° 0 mm 3 mps 647 mmHg 16%
    15:00 +34°C° 0 mm 4 mps 647 mmHg 18%
    16:00 +33°C° 0 mm 5 mps 646 mmHg 20%
    17:00 +32°C° 0 mm 5 mps 646 mmHg 22%
    18:00 +29°C° 0 mm 5 mps 646 mmHg 30%
    19:00 +26°C° 0 mm 5 mps 646 mmHg 39%
    20:00 +23°C° 0 mm 5 mps 646 mmHg 48%
    21:00 +22°C° 0 mm 4 mps 646 mmHg 53%
    22:00 +22°C° 0 mm 4 mps 646 mmHg 58%
    23:00 +21°C° 0 mm 3 mps 646 mmHg 62%

    Day after tomorrow, 22 September, Saturday

    Time Temperature Precipitation Wind Pressure Humidity
    00:00 +20°C° 0 mm 2 mps 646 mmHg 63%
    01:00 +19°C° 0 mm 2 mps 646 mmHg 64%
    02:00 +19°C° 0 mm 2 mps 645 mmHg 65%
    03:00 +18°C° 0 mm 2 mps 645 mmHg 66%
    04:00 +18°C° 0 mm 2 mps 645 mmHg 66%
    05:00 +18°C° 0 mm 1 mps 645 mmHg 67%
    06:00 +19°C° 0 mm 2 mps 646 mmHg 58%
    07:00 +21°C° 0 mm 2 mps 647 mmHg 49%
    08:00 +24°C° 0 mm 3 mps 648 mmHg 40%
    09:00 +26°C° 0 mm 3 mps 648 mmHg 34%
    10:00 +28°C° 0 mm 3 mps 648 mmHg 28%
    11:00 +31°C° 0 mm 3 mps 649 mmHg 22%
    12:00 +33°C° 0 mm 4 mps 648 mmHg 20%
    13:00 +33°C° 0 mm 4 mps 647 mmHg 18%
    14:00 +34°C° 0 mm 4 mps 646 mmHg 16%
    15:00 +33°C° 0 mm 5 mps 646 mmHg 17%
    16:00 +32°C° 0 mm 5 mps 646 mmHg 17%
    17:00 +32°C° 0 mm 5 mps 645 mmHg 18%
    18:00 +29°C° 0 mm 5 mps 645 mmHg 21%
    19:00 +27°C° 0 mm 4 mps 646 mmHg 24%
    20:00 +25°C° 0 mm 4 mps 646 mmHg 26%
    21:00 +23°C° 0 mm 4 mps 646 mmHg 26%
    22:00 +22°C° 0 mm 3 mps 646 mmHg 26%
    23:00 +21°C° 0 mm 3 mps 646 mmHg 25%

    23 September, Sunday

    Time Temperature Precipitation Wind Pressure Humidity
    00:00 +20°C° 0 mm 3 mps 646 mmHg 28%
    01:00 +19°C° 0 mm 2 mps 645 mmHg 30%
    02:00 +18°C° 0 mm 2 mps 645 mmHg 33%
    03:00 +17°C° 0 mm 2 mps 644 mmHg 35%
    04:00 +17°C° 0 mm 2 mps 644 mmHg 37%
    05:00 +16°C° 0 mm 2 mps 644 mmHg 40%
    06:00 +18°C° 0 mm 2 mps 645 mmHg 37%
    07:00 +20°C° 0 mm 3 mps 646 mmHg 34%
    08:00 +22°C° 0 mm 3 mps 647 mmHg 31%
    09:00 +26°C° 0 mm 3 mps 648 mmHg 25%
    10:00 +28°C° 0 mm 4 mps 648 mmHg 19%
    11:00 +30°C° 0 mm 4 mps 648 mmHg 14%
    12:00 +32°C° 0 mm 4 mps 647 mmHg 13%
    13:00 +33°C° 0 mm 4 mps 647 mmHg 11%
    14:00 +34°C° 0 mm 4 mps 646 mmHg 10%
    15:00 +33°C° 0 mm 4 mps 646 mmHg 10%
    16:00 +32°C° 0 mm 4 mps 645 mmHg 11%
    17:00 +32°C° 0 mm 4 mps 645 mmHg 11%
    18:00 +28°C° 0 mm 4 mps 645 mmHg 12%
    19:00 +26°C° 0 mm 4 mps 645 mmHg 14%
    20:00 +23°C° 0 mm 4 mps 645 mmHg 15%
    21:00 +22°C° 0 mm 3 mps 645 mmHg 18%
    22:00 +21°C° 0 mm 3 mps 645 mmHg 20%
    23:00 +20°C° 0 mm 2 mps 645 mmHg 23%

    24 September, Monday

    Time Temperature Precipitation Wind Pressure Humidity
    00:00 +19°C° 0 mm 2 mps 645 mmHg 27%
    01:00 +18°C° 0 mm 2 mps 644 mmHg 31%
    02:00 +18°C° 0 mm 2 mps 644 mmHg 35%
    03:00 +17°C° 0 mm 2 mps 644 mmHg 39%
    04:00 +17°C° 0 mm 2 mps 644 mmHg 43%
    05:00 +16°C° 0 mm 2 mps 644 mmHg 48%
    06:00 +18°C° 0 mm 2 mps 644 mmHg 41%
    07:00 +21°C° 0 mm 2 mps 645 mmHg 34%
    08:00 +24°C° 0 mm 3 mps 646 mmHg 27%
    09:00 +27°C° 0 mm 3 mps 647 mmHg 23%
    10:00 +29°C° 0 mm 3 mps 647 mmHg 18%
    11:00 +33°C° 0 mm 3 mps 647 mmHg 13%
    12:00 +34°C° 0 mm 2 mps 647 mmHg 12%
    13:00 +35°C° 0 mm 2 mps 646 mmHg 11%
    14:00 +36°C° 0 mm 2 mps 646 mmHg 10%
    15:00 +35°C° 0 mm 2 mps 645 mmHg 10%
    16:00 +34°C° 0 mm 3 mps 645 mmHg 11%
    17:00 +33°C° 0 mm 3 mps 644 mmHg 11%
    18:00 +30°C° 0 mm 3 mps 644 mmHg 14%
    19:00 +28°C° 0 mm 3 mps 644 mmHg 16%
    20:00 +26°C° 0 mm 3 mps 644 mmHg 19%
    21:00 +25°C° 0 mm 3 mps 644 mmHg 22%
    22:00 +24°C° 0 mm 3 mps 644 mmHg 24%
    23:00 +23°C° 0 mm 2 mps 644 mmHg 27%

    25 September, Tuesday

    Time Temperature Precipitation Wind Pressure Humidity
    00:00 +22°C° 0 mm 3 mps 644 mmHg 31%
    01:00 +21°C° 0 mm 3 mps 644 mmHg 36%
    02:00 +21°C° 0 mm 3 mps 644 mmHg 40%
    03:00 +20°C° 0 mm 3 mps 644 mmHg 44%
    04:00 +20°C° 0 mm 3 mps 644 mmHg 48%
    05:00 +19°C° 0 mm 3 mps 644 mmHg 51%
    06:00 +21°C° 0 mm 3 mps 644 mmHg 45%
    07:00 +24°C° 0 mm 3 mps 645 mmHg 39%
    08:00 +25°C° 0 mm 4 mps 646 mmHg 34%
    09:00 +28°C° 0 mm 4 mps 646 mmHg 28%
    10:00 +30°C° 0 mm 3 mps 647 mmHg 22%
    11:00 +34°C° 0 mm 3 mps 647 mmHg 17%
    12:00 +35°C° 0 mm 2 mps 646 mmHg 15%
    13:00 +36°C° 0 mm 2 mps 646 mmHg 13%
    14:00 +37°C° 0 mm 2 mps 646 mmHg 11%
    15:00 +36°C° 0 mm 2 mps 645 mmHg 12%
    16:00 +35°C° 0 mm 2 mps 645 mmHg 13%
    17:00 +34°C° 0 mm 2 mps 644 mmHg 14%
    18:00 +32°C° 0 mm 2 mps 644 mmHg 15%
    19:00 +30°C° 0 mm 2 mps 644 mmHg 17%
    20:00 +29°C° 0 mm 2 mps 645 mmHg 18%
    21:00 +28°C° 0 mm 2 mps 645 mmHg 20%
    22:00 +27°C° 0 mm 2 mps 645 mmHg 23%
    23:00 +25°C° 0 mm 2 mps 645 mmHg 25%
    Show more